Back to catalog

BALKAN-2

AliveScienceSSO
NORAD 69024·PAYLOAD·🇬🇧 United Kingdom

Launched May 3, 2026 from Vandenberg Space Force Base

Loading…

Next Passes (next 24 hours)

TLE

FreshSource: Space-Track

Epoch: Sep 14, 2026, 03:28 UTC

1 69024U 26100AW  26257.14469131  .00003904  00000-0  17988-3 0  9993
2 69024  97.3937 153.3367 0004747  62.8238 297.3481 15.20851357 20328

Track BALKAN-2 in real time with AllMySat

Download on the App Store